Time,TemperatureF,DewpointF,PressureIn,WindDirection,WindDirectionDegrees,WindSpeedMPH,WindSpeedGustMPH,Humidity,HourlyPrecipIn,Conditions,Clouds,dailyrainin,SoftwareType,DateUTC
2013-06-25 00:09:00,70.8,65.0,30.00,SE,134,0.0,0.0,81,0.00,,,0.00,weatherlink.com 1.10,2013-06-25 04:09:00,
2013-06-25 00:24:00,71.4,65.0,30.00,SE,134,0.0,0.0,80,0.00,,,0.00,weatherlink.com 1.10,2013-06-25 04:24:00,
2013-06-25 00:39:00,71.2,65.0,30.00,SE,134,0.0,0.0,81,0.00,,,0.00,weatherlink.com 1.10,2013-06-25 04:39:00,
2013-06-25 00:54:00,70.7,65.0,30.00,SE,134,0.0,0.0,82,0.00,,,0.00,weatherlink.com 1.10,2013-06-25 04:54:00,
2013-06-25 01:09:00,70.6,65.0,29.99,SE,133,0.0,0.0,82,0.00,,,0.00,weatherlink.com 1.10,2013-06-25 05:09:00,
2013-06-25 01:24:00,70.2,65.0,29.99,ESE,103,0.0,1.0,83,0.00,,,0.00,weatherlink.com 1.10,2013-06-25 05:24:00,
2013-06-25 01:39:00,70.3,65.0,29.97,ESE,103,0.0,0.0,83,0.00,,,0.00,weatherlink.com 1.10,2013-06-25 05:39:00,
2013-06-25 01:54:00,70.1,65.0,29.97,ESE,103,0.0,0.0,84,0.00,,,0.00,weatherlink.com 1.10,2013-06-25 05:54:00,
2013-06-25 02:09:00,70.1,64.0,29.97,ESE,103,0.0,0.0,82,0.00,,,0.00,weatherlink.com 1.10,2013-06-25 06:09:00,
2013-06-25 02:24:00,69.9,65.0,29.97,ESE,103,0.0,0.0,83,0.00,,,0.00,weatherlink.com 1.10,2013-06-25 06:24:00,
2013-06-25 02:39:00,69.5,65.0,29.97,ESE,105,0.0,1.0,84,0.00,,,0.00,weatherlink.com 1.10,2013-06-25 06:39:00,
2013-06-25 02:54:00,69.1,65.0,29.96,ESE,104,0.0,0.0,85,0.00,,,0.00,weatherlink.com 1.10,2013-06-25 06:54:00,
2013-06-25 03:09:00,68.8,64.0,29.96,ESE,107,0.0,0.0,85,0.00,,,0.00,weatherlink.com 1.10,2013-06-25 07:09:00,
2013-06-25 03:24:00,69.1,65.0,29.96,SE,138,0.0,1.0,85,0.00,,,0.00,weatherlink.com 1.10,2013-06-25 07:24:00,
2013-06-25 03:39:00,69.0,64.0,29.96,SE,138,0.0,0.0,85,0.00,,,0.00,weatherlink.com 1.10,2013-06-25 07:39:00,
2013-06-25 03:54:00,68.7,64.0,29.96,SE,138,0.0,0.0,86,0.00,,,0.00,weatherlink.com 1.10,2013-06-25 07:54:00,
2013-06-25 04:09:00,68.4,64.0,29.96,SE,138,0.0,0.0,86,0.00,,,0.00,weatherlink.com 1.10,2013-06-25 08:09:00,
2013-06-25 04:24:00,68.2,64.0,29.96,SE,138,0.0,0.0,87,0.00,,,0.00,weatherlink.com 1.10,2013-06-25 08:24:00,
2013-06-25 04:39:00,68.0,64.0,29.95,SE,138,0.0,0.0,88,0.00,,,0.00,weatherlink.com 1.10,2013-06-25 08:39:00,
2013-06-25 04:54:00,67.5,64.0,29.95,SE,138,0.0,0.0,88,0.00,,,0.00,weatherlink.com 1.10,2013-06-25 08:54:00,
2013-06-25 05:09:00,67.2,64.0,29.96,SE,138,0.0,0.0,89,0.00,,,0.00,weatherlink.com 1.10,2013-06-25 09:09:00,
2013-06-25 05:24:00,67.1,64.0,29.96,SE,138,0.0,0.0,90,0.00,,,0.00,weatherlink.com 1.10,2013-06-25 09:24:00,
2013-06-25 05:39:00,66.9,64.0,29.96,SE,138,0.0,0.0,90,0.00,,,0.00,weatherlink.com 1.10,2013-06-25 09:39:00,
2013-06-25 05:54:00,66.9,64.0,29.96,SE,138,0.0,0.0,90,0.00,,,0.00,weatherlink.com 1.10,2013-06-25 09:54:00,
2013-06-25 06:09:00,67.0,64.0,29.97,SE,138,0.0,0.0,90,0.00,,,0.00,weatherlink.com 1.10,2013-06-25 10:09:00,
2013-06-25 06:24:00,67.3,64.0,29.96,SE,138,0.0,0.0,90,0.00,,,0.00,weatherlink.com 1.10,2013-06-25 10:24:00,
2013-06-25 06:39:00,67.6,64.0,29.96,SE,138,0.0,0.0,89,0.00,,,0.00,weatherlink.com 1.10,2013-06-25 10:39:00,
2013-06-25 06:54:00,67.9,65.0,29.96,SE,141,0.0,1.0,89,0.00,,,0.00,weatherlink.com 1.10,2013-06-25 10:54:00,
2013-06-25 07:09:00,68.5,65.0,29.96,ESE,122,0.0,1.0,88,0.00,,,0.00,weatherlink.com 1.10,2013-06-25 11:09:00,
2013-06-25 07:24:00,69.2,65.0,29.97,SE,132,0.0,1.0,87,0.00,,,0.00,weatherlink.com 1.10,2013-06-25 11:24:00,
2013-06-25 07:39:00,70.0,66.0,29.96,SE,134,0.0,0.0,87,0.00,,,0.00,weatherlink.com 1.10,2013-06-25 11:39:00,
2013-06-25 07:54:00,70.8,67.0,29.96,SE,134,0.0,0.0,86,0.00,,,0.00,weatherlink.com 1.10,2013-06-25 11:54:00,
2013-06-25 08:09:00,71.6,67.0,29.97,East,96,0.0,0.0,84,0.00,,,0.00,weatherlink.com 1.10,2013-06-25 12:09:00,
2013-06-25 08:24:00,72.4,67.0,29.96,NW,320,0.0,1.0,83,0.00,,,0.00,weatherlink.com 1.10,2013-06-25 12:24:00,
2013-06-25 08:39:00,73.6,67.0,29.96,SE,135,0.0,1.0,81,0.00,,,0.00,weatherlink.com 1.10,2013-06-25 12:39:00,
2013-06-25 08:54:00,75.6,69.0,29.96,SE,145,0.0,1.0,79,0.00,,,0.00,weatherlink.com 1.10,2013-06-25 12:54:00,
2013-06-25 09:10:00,77.4,70.0,29.96,SE,145,0.0,1.0,77,0.00,,,0.00,weatherlink.com 1.10,2013-06-25 13:10:00,
2013-06-25 09:25:00,78.5,70.0,29.96,South,170,0.0,2.0,75,0.00,,,0.00,weatherlink.com 1.10,2013-06-25 13:25:00,
2013-06-25 09:40:00,79.0,70.0,29.96,ESE,114,0.0,0.0,73,0.00,,,0.00,weatherlink.com 1.10,2013-06-25 13:40:00,
2013-06-25 09:55:00,79.9,70.0,29.96,ESE,113,0.0,0.0,72,0.00,,,0.00,weatherlink.com 1.10,2013-06-25 13:55:00,
2013-06-25 10:10:00,80.0,70.0,29.96,SSE,151,0.0,0.0,71,0.00,,,0.00,weatherlink.com 1.10,2013-06-25 14:10:00,
2013-06-25 10:25:00,79.9,71.0,29.96,SSE,148,0.0,0.0,74,0.00,,,0.00,weatherlink.com 1.10,2013-06-25 14:25:00,
2013-06-25 10:40:00,80.1,71.0,29.96,ESE,116,0.0,2.0,74,0.00,,,0.00,weatherlink.com 1.10,2013-06-25 14:40:00,
2013-06-25 10:55:00,81.0,72.0,29.96,East,93,0.0,0.0,73,0.00,,,0.00,weatherlink.com 1.10,2013-06-25 14:55:00,
2013-06-25 11:10:00,82.3,73.0,29.96,ESE,107,0.0,0.0,73,0.00,,,0.00,weatherlink.com 1.10,2013-06-25 15:10:00,
2013-06-25 11:25:00,83.0,73.0,29.95,West,278,0.0,3.0,71,0.00,,,0.00,weatherlink.com 1.10,2013-06-25 15:25:00,
2013-06-25 11:40:00,83.6,72.0,29.95,SSE,161,0.0,2.0,69,0.00,,,0.00,weatherlink.com 1.10,2013-06-25 15:40:00,
2013-06-25 11:55:00,84.0,71.0,29.95,ESE,114,0.0,1.0,65,0.00,,,0.00,weatherlink.com 1.10,2013-06-25 15:55:00,
2013-06-25 12:10:00,84.7,71.0,29.95,South,177,0.0,3.0,63,0.00,,,0.00,weatherlink.com 1.10,2013-06-25 16:10:00,
2013-06-25 12:25:00,85.4,71.0,29.94,South,181,0.0,2.0,62,0.00,,,0.00,weatherlink.com 1.10,2013-06-25 16:25:00,
2013-06-25 12:55:00,86.5,70.0,29.93,SSE,149,0.0,2.0,59,0.00,,,0.00,weatherlink.com 1.10,2013-06-25 16:55:00,
2013-06-25 13:10:00,86.6,70.0,29.92,SE,134,0.0,3.0,57,0.00,,,0.00,weatherlink.com 1.10,2013-06-25 17:10:00,
2013-06-25 13:25:00,86.8,69.0,29.92,SSE,168,0.0,3.0,56,0.00,,,0.00,weatherlink.com 1.10,2013-06-25 17:25:00,
2013-06-25 13:40:00,87.3,71.0,29.91,SSE,160,3.0,4.0,58,0.00,,,0.00,weatherlink.com 1.10,2013-06-25 17:40:00,
2013-06-25 13:55:00,88.3,71.0,29.90,SE,134,0.0,3.0,57,0.00,,,0.00,weatherlink.com 1.10,2013-06-25 17:55:00,
2013-06-25 14:10:00,88.8,69.0,29.90,South,184,2.0,3.0,52,0.00,,,0.00,weatherlink.com 1.10,2013-06-25 18:10:00,
2013-06-25 14:25:00,89.3,70.0,29.89,SE,145,0.0,2.0,53,0.00,,,0.00,weatherlink.com 1.10,2013-06-25 18:25:00,
2013-06-25 14:40:00,89.5,71.0,29.89,ESE,110,0.0,4.0,55,0.00,,,0.00,weatherlink.com 1.10,2013-06-25 18:40:00,
2013-06-25 14:56:00,88.5,69.0,29.89,ESE,120,0.0,3.0,53,0.00,,,0.00,weatherlink.com 1.10,2013-06-25 18:56:00,
2013-06-25 15:11:00,88.2,67.0,29.88,SSE,154,0.0,3.0,50,0.00,,,0.00,weatherlink.com 1.10,2013-06-25 19:11:00,
2013-06-25 15:26:00,88.6,70.0,29.87,SE,143,0.0,2.0,55,0.00,,,0.00,weatherlink.com 1.10,2013-06-25 19:26:00,
2013-06-25 15:41:00,89.7,67.0,29.87,ESE,117,0.0,4.0,48,0.00,,,0.00,weatherlink.com 1.10,2013-06-25 19:41:00,
2013-06-25 15:56:00,87.8,67.0,29.87,South,170,0.0,2.0,51,0.00,,,0.00,weatherlink.com 1.10,2013-06-25 19:56:00,
2013-06-25 16:11:00,85.6,68.0,29.89,SSE,156,0.0,2.0,56,0.00,,,0.00,weatherlink.com 1.10,2013-06-25 20:11:00,
2013-06-25 16:26:00,77.7,70.0,29.90,South,191,0.0,6.0,78,0.33,,,0.33,weatherlink.com 1.10,2013-06-25 20:26:00,
2013-06-25 16:41:00,73.6,70.0,29.88,SSE,160,0.0,0.0,87,0.36,,,0.36,weatherlink.com 1.10,2013-06-25 20:41:00,
2013-06-25 16:56:00,73.0,71.0,29.87,SE,145,0.0,0.0,92,0.36,,,0.36,weatherlink.com 1.10,2013-06-25 20:56:00,
2013-06-25 17:11:00,73.3,72.0,29.86,SE,145,0.0,0.0,94,0.36,,,0.36,weatherlink.com 1.10,2013-06-25 21:11:00,
2013-06-25 17:26:00,74.5,73.0,29.85,SE,145,0.0,0.0,95,0.02,,,0.36,weatherlink.com 1.10,2013-06-25 21:26:00,
2013-06-25 17:41:00,76.3,74.0,29.84,SE,145,0.0,0.0,93,0.00,,,0.36,weatherlink.com 1.10,2013-06-25 21:41:00,
2013-06-25 17:56:00,77.6,74.0,29.83,ESE,121,0.0,1.0,87,0.00,,,0.36,weatherlink.com 1.10,2013-06-25 21:56:00,
2013-06-25 18:11:00,77.9,74.0,29.82,SE,144,0.0,2.0,87,0.00,,,0.36,weatherlink.com 1.10,2013-06-25 22:11:00,
2013-06-25 18:26:00,78.0,74.0,29.83,ENE,67,1.0,2.0,86,0.00,,,0.36,weatherlink.com 1.10,2013-06-25 22:26:00,
2013-06-25 18:41:00,77.7,73.0,29.83,North,6,0.0,3.0,84,0.00,,,0.36,weatherlink.com 1.10,2013-06-25 22:41:00,
2013-06-25 18:56:00,77.0,73.0,29.84,ESE,116,0.0,0.0,88,0.00,,,0.36,weatherlink.com 1.10,2013-06-25 22:56:00,
2013-06-25 19:11:00,76.3,72.0,29.84,ESE,116,0.0,1.0,87,0.00,,,0.36,weatherlink.com 1.10,2013-06-25 23:11:00,
2013-06-25 19:26:00,75.7,72.0,29.84,ENE,72,2.0,2.0,87,0.00,,,0.36,weatherlink.com 1.10,2013-06-25 23:26:00,
2013-06-25 19:41:00,75.3,71.0,29.84,South,169,0.0,0.0,86,0.00,,,0.36,weatherlink.com 1.10,2013-06-25 23:41:00,
2013-06-25 19:56:00,74.3,70.0,29.84,South,169,0.0,0.0,86,0.00,,,0.36,weatherlink.com 1.10,2013-06-25 23:56:00,
2013-06-25 20:11:00,74.1,70.0,29.84,SSE,160,0.0,0.0,86,0.00,,,0.36,weatherlink.com 1.10,2013-06-26 00:11:00,
2013-06-25 20:26:00,73.9,69.0,29.85,WNW,294,3.0,3.0,85,0.00,,,0.36,weatherlink.com 1.10,2013-06-26 00:26:00,
2013-06-25 20:41:00,74.4,69.0,29.85,South,183,0.0,0.0,84,0.00,,,0.36,weatherlink.com 1.10,2013-06-26 00:41:00,
2013-06-25 20:56:00,73.6,68.0,29.85,South,170,0.0,1.0,83,0.00,,,0.36,weatherlink.com 1.10,2013-06-26 00:56:00,
2013-06-25 21:11:00,73.6,69.0,29.85,South,172,0.0,0.0,85,0.00,,,0.36,weatherlink.com 1.10,2013-06-26 01:11:00,
2013-06-25 21:26:00,73.5,69.0,29.85,South,170,0.0,0.0,85,0.00,,,0.36,weatherlink.com 1.10,2013-06-26 01:26:00,
2013-06-25 21:41:00,73.6,69.0,29.85,South,172,0.0,0.0,84,0.00,,,0.36,weatherlink.com 1.10,2013-06-26 01:41:00,
2013-06-25 21:56:00,73.6,68.0,29.85,South,172,0.0,0.0,82,0.00,,,0.36,weatherlink.com 1.10,2013-06-26 01:56:00,
2013-06-25 22:11:00,74.6,68.0,29.85,SSE,154,0.0,0.0,81,0.00,,,0.36,weatherlink.com 1.10,2013-06-26 02:11:00,
2013-06-25 22:26:00,74.7,68.0,29.85,SSE,153,0.0,0.0,80,0.00,,,0.36,weatherlink.com 1.10,2013-06-26 02:26:00,
2013-06-25 22:41:00,74.2,69.0,29.86,SSE,153,0.0,0.0,83,0.00,,,0.36,weatherlink.com 1.10,2013-06-26 02:41:00,
2013-06-25 22:56:00,73.7,69.0,29.86,SSE,153,0.0,0.0,85,0.00,,,0.36,weatherlink.com 1.10,2013-06-26 02:56:00,
2013-06-25 23:11:00,73.7,69.0,29.85,SSE,151,0.0,2.0,85,0.00,,,0.36,weatherlink.com 1.10,2013-06-26 03:11:00,
2013-06-25 23:26:00,73.8,69.0,29.84,SSE,150,0.0,0.0,84,0.00,,,0.36,weatherlink.com 1.10,2013-06-26 03:26:00,
2013-06-25 23:41:00,73.6,69.0,29.83,SSE,151,0.0,0.0,86,0.00,,,0.36,weatherlink.com 1.10,2013-06-26 03:41:00,
2013-06-25 23:56:00,73.2,69.0,29.82,SSE,150,0.0,0.0,86,0.00,,,0.36,weatherlink.com 1.10,2013-06-26 03:56:00,